| time (UTC) | temp F | wind direction | speed MPH | gust MPH | rain 1hr in | rain 24hr in | rain mn in | humidity % | barometer mb |
| 20260906231554 | -90 | 121 | 0.0 | 5.0 | 0.00 | 0.00 | 0.00 | 1006.4 | |
| 20260906230050 | -90 | 121 | 1.0 | 8.0 | 0.00 | 0.00 | 0.00 | 1006.6 | |
| 20260906224550 | -90 | 109 | 0.0 | 0.0 | 0.00 | 0.00 | 0.00 | 1006.9 | |
| 20260906223042 | -90 | 109 | 0.0 | 0.0 | 0.00 | 0.00 | 0.00 | 1007.2 | |
| 20260906221537 | -90 | 109 | 0.0 | 5.0 | 0.00 | 0.00 | 0.00 | 1007.6 | |
| 20260906220033 | -90 | 109 | 3.0 | 6.0 | 0.00 | 0.00 | 0.00 | 1007.9 | |
| 20260906214529 | -90 | 109 | 0.0 | 5.0 | 0.00 | 0.00 | 0.00 | 1008.1 | |
| 20260906213024 | -90 | 109 | 2.0 | 3.0 | 0.00 | 0.00 | 0.00 | 1008.3 | |
| 20260906211520 | -90 | 109 | 1.0 | 4.0 | 0.00 | 0.00 | 0.00 | 1008.6 | |
| 20260906210017 | -90 | 109 | 1.0 | 6.0 | 0.00 | 0.00 | 0.00 | 1009.0 | |
| 20260906204511 | -90 | 108 | 4.0 | 5.0 | 0.00 | 0.00 | 0.00 | 1009.4 | |
| 20260906203007 | -90 | 108 | 0.0 | 0.0 | 0.00 | 0.00 | 0.00 | 1009.7 | |
| 20260906201503 | -90 | 108 | 1.0 | 4.0 | 0.00 | 0.00 | 0.00 | 1010.3 | |
| 20260906200058 | -90 | 108 | 0.0 | 2.0 | 0.00 | 0.00 | 0.00 | 1010.7 | |
| 20260906194553 | -90 | 108 | 0.0 | 0.0 | 0.00 | 0.00 | 0.00 | 1011.0 | |
| 20260906193049 | -90 | 108 | 4.0 | 7.0 | 0.00 | 0.00 | 0.00 | 1011.2 | |
| 20260906191544 | -90 | 71 | 0.0 | 0.0 | 0.00 | 0.00 | 0.00 | 1011.7 | |
| 20260906190043 | -90 | 71 | 0.0 | 0.0 | 0.00 | 0.00 | 0.00 | 1011.8 | |
| 20260906184535 | -90 | 71 | 0.0 | 2.0 | 0.00 | 0.00 | 0.00 | 1012.1 | |
| 20260906183033 | -90 | 71 | 0.0 | 2.0 | 0.00 | 0.00 | 0.00 | 1012.3 | |
| 20260906181526 | -90 | 71 | 0.0 | 4.0 | 0.00 | 0.00 | 0.00 | 1012.4 | |
| 20260906180041 | -90 | 71 | 2.0 | 4.0 | 0.00 | 0.00 | 0.00 | 1012.5 | |
| 20260906174519 | -90 | 71 | 0.0 | 0.0 | 0.00 | 0.00 | 0.00 | 1012.5 | |
| 20260906173013 | -90 | 71 | 0.0 | 5.0 | 0.00 | 0.00 | 0.00 | 1012.7 | |
| 20260906171509 | -90 | 71 | 3.0 | 6.0 | 0.00 | 0.00 | 0.00 | 1012.7 | |
| 20260906170006 | -90 | 71 | 2.0 | 6.0 | 0.00 | 0.00 | 0.00 | 1012.8 | |
| 20260906164607 | -90 | 63 | 5.0 | 6.0 | 0.00 | 0.00 | 0.00 | 1012.9 | |
| 20260906163106 | -90 | 63 | 2.0 | 7.0 | 0.00 | 0.00 | 0.00 | 1013.2 | |
| 20260906161551 | -90 | 61 | 0.0 | 6.0 | 0.00 | 0.00 | 0.00 | 1013.5 | |
| 20260906160049 | -90 | 61 | 3.0 | 4.0 | 0.00 | 0.00 | 0.00 | 1013.9 | |
| 20260906154542 | -90 | 61 | 2.0 | 5.0 | 0.00 | 0.00 | 0.00 | 1014.1 | |
| 20260906153038 | -90 | 61 | 0.0 | 0.0 | 0.00 | 0.00 | 0.00 | 1014.2 | |
| 20260906151534 | -90 | 61 | 0.0 | 2.0 | 0.00 | 0.00 | 0.00 | 1014.3 | |
| 20260906150031 | -90 | 61 | 2.0 | 5.0 | 0.00 | 0.00 | 0.00 | 1014.4 | |
| 20260906144531 | -90 | 296 | 0.0 | 2.0 | 0.00 | 0.00 | 0.00 | 1014.5 | |
| 20260906143028 | -90 | 296 | 3.0 | 5.0 | 0.00 | 0.00 | 0.00 | 1014.5 | |
| 20260906141515 | -90 | 296 | 0.0 | 5.0 | 0.00 | 0.00 | 0.00 | 1014.5 | |
| 20260906140016 | -90 | 296 | 2.0 | 5.0 | 0.00 | 0.00 | 0.00 | 1014.8 | |
| 20260906134508 | -90 | 296 | 0.0 | 4.0 | 0.00 | 0.00 | 0.00 | 1015.0 | |
| 20260906133003 | -90 | 293 | 3.0 | 6.0 | 0.00 | 0.00 | 0.00 | 1014.9 | |
| 20260906131558 | -90 | 293 | 5.0 | 7.0 | 0.00 | 0.00 | 0.00 | 1014.9 | |
| 20260906130054 | -90 | 293 | 1.0 | 8.0 | 0.00 | 0.00 | 0.00 | 1015.0 | |
| 20260906124549 | -90 | 298 | 3.0 | 6.0 | 0.00 | 0.00 | 0.00 | 1015.1 | |
| 20260906123044 | -90 | 298 | 0.0 | 5.0 | 0.00 | 0.00 | 0.00 | 1015.2 | |
| 20260906121540 | -90 | 298 | 4.0 | 5.0 | 0.00 | 0.00 | 0.00 | 1015.3 | |
| 20260906120035 | -90 | 298 | 1.0 | 4.0 | 0.00 | 0.00 | 0.00 | 1015.4 | |
| 20260906114532 | -90 | 298 | 3.0 | 6.0 | 0.00 | 0.00 | 0.00 | 1015.4 | |
| 20260906113027 | -90 | 298 | 2.0 | 4.0 | 0.00 | 0.00 | 0.00 | 1015.4 | |
| 20260906111521 | -90 | 298 | 0.0 | 1.0 | 0.00 | 0.00 | 0.00 | 1015.5 | |
| 20260906110018 | -90 | 298 | 0.0 | 4.0 | 0.00 | 0.00 | 0.00 | 1015.5 | |
| 20260906104524 | -90 | 298 | 2.0 | 6.0 | 0.00 | 0.00 | 0.00 | 1015.5 | |
| 20260906103009 | -90 | 298 | 5.0 | 6.0 | 0.00 | 0.00 | 0.00 | 1015.6 | |
| 20260906101505 | -90 | 298 | 0.0 | 7.0 | 0.00 | 0.00 | 0.00 | 1015.5 | |
| 20260906094555 | 0 | 279 | 1.0 | 12.0 | 0.00 | 0.00 | 0.00 | 1015.4 | |
| 20260906093051 | 0 | 294 | 4.0 | 11.0 | 0.00 | 0.00 | 0.00 | 1015.3 | |
| 20260906091547 | 0 | 311 | 1.0 | 3.0 | 0.00 | 0.00 | 0.00 | 1015.3 | |
| 20260906090042 | 0 | 311 | 0.0 | 0.0 | 0.00 | 0.00 | 0.00 | 1015.1 | |
| 20260906084547 | 0 | 311 | 1.0 | 5.0 | 0.00 | 0.00 | 0.00 | 1015.0 | |
| 20260906083037 | 0 | 311 | 4.0 | 6.0 | 0.00 | 0.00 | 0.00 | 1015.1 | |
| 20260906081530 | 0 | 311 | 0.0 | 0.0 | 0.00 | 0.00 | 0.00 | 1015.1 | |
| 20260906080030 | 0 | 311 | 2.0 | 10.0 | 0.00 | 0.00 | 0.00 | 1014.9 | |
| 20260906074520 | 0 | 266 | 7.0 | 15.0 | 0.00 | 0.00 | 0.00 | 1014.8 | |
| 20260906073016 | 0 | 197 | 0.0 | 4.0 | 0.00 | 0.00 | 0.00 | 1014.7 | |
| 20260906071510 | 0 | 197 | 0.0 | 2.0 | 0.00 | 0.00 | 0.00 | 1014.5 | |
| 20260906070006 | 0 | 197 | 0.0 | 4.0 | 0.00 | 0.00 | 0.00 | 1014.4 | |
| 20260906064503 | 0 | 197 | 0.0 | 5.0 | 0.00 | 0.00 | 0.00 | 1014.2 | |
| 20260906063059 | 0 | 197 | 3.0 | 6.0 | 0.00 | 0.00 | 0.00 | 1014.1 | |
| 20260906061557 | 0 | 197 | 0.0 | 4.0 | 0.00 | 0.00 | 0.00 | 1014.0 | |
| 20260906060049 | 0 | 197 | 6.0 | 9.0 | 0.00 | 0.00 | 0.00 | 1013.9 | |
| 20260906054545 | 0 | 199 | 0.0 | 9.0 | 0.00 | 0.00 | 0.00 | 1013.9 | |
| 20260906053049 | 0 | 231 | 0.0 | 4.0 | 0.00 | 0.00 | 0.00 | 1013.8 | |
| 20260906051536 | 0 | 231 | 0.0 | 4.0 | 0.00 | 0.00 | 0.00 | 1013.8 | |
| 20260906050031 | 0 | 231 | 2.0 | 6.0 | 0.00 | 0.00 | 0.00 | 1013.7 | |
| 20260906044527 | 0 | 231 | 5.0 | 8.0 | 0.00 | 0.00 | 0.00 | 1013.5 | |
| 20260906043029 | 0 | 305 | 1.0 | 4.0 | 0.00 | 0.00 | 0.00 | 1013.4 | |
| 20260906041519 | 0 | 305 | 0.0 | 7.0 | 0.00 | 0.00 | 0.00 | 1013.2 | |
| 20260906040019 | 0 | 310 | 2.0 | 14.0 | 0.00 | 0.00 | 0.00 | 1013.2 | |
| 20260906034514 | 0 | 236 | 0.0 | 0.0 | 0.00 | 0.00 | 0.00 | 1013.0 | |
| 20260906033016 | 0 | 236 | 0.0 | 0.0 | 0.00 | 0.00 | 0.00 | 1013.0 | |
| 20260906031501 | 0 | 235 | 0.0 | 0.0 | 0.00 | 0.00 | 0.00 | 1012.8 | |
| 20260906030058 | 0 | 235 | 0.0 | 0.0 | 0.00 | 0.00 | 0.00 | 1012.8 | |
| 20260906024602 | 0 | 235 | 0.0 | 0.0 | 0.00 | 0.00 | 0.00 | 1012.7 | |
| 20260906023048 | 0 | 235 | 0.0 | 0.0 | 0.00 | 0.00 | 0.00 | 1012.9 | |
| 20260906021543 | 0 | 235 | 0.0 | 0.0 | 0.00 | 0.00 | 0.00 | 1012.6 | |
| 20260906020046 | 0 | 235 | 0.0 | 0.0 | 0.00 | 0.00 | 0.00 | 1012.6 | |
| 20260906014549 | 0 | 235 | 0.0 | 0.0 | 0.00 | 0.00 | 0.00 | 1012.5 | |
| 20260906013033 | 0 | 235 | 0.0 | 0.0 | 0.00 | 0.00 | 0.00 | 1012.3 | |
| 20260906011536 | 0 | 235 | 0.0 | 0.0 | 0.00 | 0.00 | 0.00 | 1012.0 | |
| 20260906010022 | 0 | 236 | 1.0 | 4.0 | 0.00 | 0.00 | 0.00 | 1011.8 | |
| 20260906004532 | 0 | 235 | 0.0 | 5.0 | 0.00 | 0.00 | 0.00 | 1011.7 | |
| 20260906003013 | 0 | 236 | 0.0 | 0.0 | 0.00 | 0.00 | 0.00 | 1011.6 | |
| 20260906001509 | 0 | 235 | 0.0 | 0.0 | 0.00 | 0.00 | 0.00 | 1011.5 | |
| 20260906000004 | 0 | 236 | 0.0 | 0.0 | 0.00 | 0.00 | 0.00 | 1011.5 | |
| 20260905234608 | 0 | 236 | 0.0 | 0.0 | 0.00 | 0.00 | 0.00 | 1011.3 | |
| 20260905233056 | 0 | 236 | 0.0 | 0.0 | 0.00 | 0.00 | 0.00 | 1011.3 |